owner,sensor,date,latitude,longitude,vertical_datum,wind_speed,wind_to_direction,wind_speed_of_gust,qcFlag 
DISL,ioos:station:DISL:CATA:1,2019-10-01T00:40:00Z,30.3085,-88.1395,0.0,2.92,159.0,-9999.0,'11111222,11111222,99999222' 
DISL,ioos:station:DISL:CATA:1,2019-10-01T01:40:00Z,30.3085,-88.1395,0.0,1.92,184.6,-9999.0,'11111222,11111222,99999222' 
DISL,ioos:station:DISL:CATA:1,2019-10-01T02:40:00Z,30.3085,-88.1395,0.0,1.46,189.3,-9999.0,'11111222,11111222,99999222' 
DISL,ioos:station:DISL:CATA:1,2019-10-01T03:40:00Z,30.3085,-88.1395,0.0,1.0,177.5,-9999.0,'11111222,11111222,99999222' 
DISL,ioos:station:DISL:CATA:1,2019-10-01T04:40:00Z,30.3085,-88.1395,0.0,1.06,153.0,-9999.0,'11111222,11111222,99999222' 
DISL,ioos:station:DISL:CATA:1,2019-10-01T05:40:00Z,30.3085,-88.1395,0.0,0.03,142.2,-9999.0,'11111222,11111222,99999222' 
DISL,ioos:station:DISL:CATA:1,2019-10-01T06:40:00Z,30.3085,-88.1395,0.0,0.93,174.7,-9999.0,'11111222,11111222,99999222' 
DISL,ioos:station:DISL:CATA:1,2019-10-01T07:40:00Z,30.3085,-88.1395,0.0,0.62,151.1,-9999.0,'11111222,11111222,99999222' 
DISL,ioos:station:DISL:CATA:1,2019-10-01T08:40:00Z,30.3085,-88.1395,0.0,0.55,330.2,-9999.0,'11111222,11111222,99999222' 
DISL,ioos:station:DISL:CATA:1,2019-10-01T09:40:00Z,30.3085,-88.1395,0.0,1.58,350.6,-9999.0,'11111222,11111222,99999222' 
DISL,ioos:station:DISL:CATA:1,2019-10-01T10:40:00Z,30.3085,-88.1395,0.0,2.95,341.2,-9999.0,'11111222,11111222,99999222' 
DISL,ioos:station:DISL:CATA:1,2019-10-01T11:40:00Z,30.3085,-88.1395,0.0,2.84,347.6,-9999.0,'11111222,11111222,99999222' 
DISL,ioos:station:DISL:CATA:1,2019-10-01T12:40:00Z,30.3085,-88.1395,0.0,2.97,346.1,-9999.0,'11111222,11111222,99999222' 
DISL,ioos:station:DISL:CATA:1,2019-10-01T13:40:00Z,30.3085,-88.1395,0.0,3.43,9.8,-9999.0,'11111222,11111222,99999222' 
DISL,ioos:station:DISL:CATA:1,2019-10-01T14:40:00Z,30.3085,-88.1395,0.0,4.67,26.98,-9999.0,'11111222,11111222,99999222' 
DISL,ioos:station:DISL:CATA:1,2019-10-01T15:40:00Z,30.3085,-88.1395,0.0,5.27,31.43,-9999.0,'11111222,11111222,99999222' 
DISL,ioos:station:DISL:CATA:1,2019-10-01T16:40:00Z,30.3085,-88.1395,0.0,5.06,30.31,-9999.0,'11111222,11111222,99999222' 
DISL,ioos:station:DISL:CATA:1,2019-10-01T17:40:00Z,30.3085,-88.1395,0.0,3.86,26.86,-9999.0,'11111222,11111222,99999222' 
DISL,ioos:station:DISL:CATA:1,2019-10-01T18:40:00Z,30.3085,-88.1395,0.0,1.93,27.19,-9999.0,'11111222,11111222,99999222' 
DISL,ioos:station:DISL:CATA:1,2019-10-01T19:40:00Z,30.3085,-88.1395,0.0,1.32,105.3,-9999.0,'11111222,11111222,99999222' 
DISL,ioos:station:DISL:CATA:1,2019-10-01T20:40:00Z,30.3085,-88.1395,0.0,3.76,126.3,-9999.0,'11111222,11111222,99999222' 
DISL,ioos:station:DISL:CATA:1,2019-10-01T21:40:00Z,30.3085,-88.1395,0.0,3.56,129.5,-9999.0,'11111222,11111222,99999222' 
DISL,ioos:station:DISL:CATA:1,2019-10-01T22:40:00Z,30.3085,-88.1395,0.0,3.86,138.8,-9999.0,'11111222,11111222,99999222' 
DISL,ioos:station:DISL:CATA:1,2019-10-01T23:40:00Z,30.3085,-88.1395,0.0,4.68,153.5,-9999.0,'11111222,11111222,99999222' 
DISL,ioos:station:DISL:CATA:1,2019-10-02T00:40:00Z,30.3085,-88.1395,0.0,4.48,169.8,-9999.0,'11111222,11111222,99999222' 
DISL,ioos:station:DISL:CATA:1,2019-10-02T01:40:00Z,30.3085,-88.1395,0.0,5.05,163.1,-9999.0,'11111222,11111222,99999222' 
DISL,ioos:station:DISL:CATA:1,2019-10-02T02:40:00Z,30.3085,-88.1395,0.0,4.11,175.7,-9999.0,'11111222,11111222,99999222' 
DISL,ioos:station:DISL:CATA:1,2019-10-02T03:40:00Z,30.3085,-88.1395,0.0,3.79,173.4,-9999.0,'11111222,11111222,99999222' 
DISL,ioos:station:DISL:CATA:1,2019-10-02T05:10:00Z,30.3085,-88.1395,0.0,2.82,190.4,-9999.0,'11111222,11111222,99999222' 
DISL,ioos:station:DISL:CATA:1,2019-10-02T05:40:00Z,30.3085,-88.1395,0.0,2.57,199.0,-9999.0,'11111222,11111222,99999222' 
DISL,ioos:station:DISL:CATA:1,2019-10-02T06:40:00Z,30.3085,-88.1395,0.0,1.29,217.8,-9999.0,'11111222,11111222,99999222' 
DISL,ioos:station:DISL:CATA:1,2019-10-02T07:40:00Z,30.3085,-88.1395,0.0,0.63,251.7,-9999.0,'11111222,11111222,99999222' 
DISL,ioos:station:DISL:CATA:1,2019-10-02T08:40:00Z,30.3085,-88.1395,0.0,1.02,356.3,-9999.0,'11111222,11111222,99999222' 
DISL,ioos:station:DISL:CATA:1,2019-10-02T09:40:00Z,30.3085,-88.1395,0.0,2.01,350.5,-9999.0,'11111222,11111222,99999222' 
DISL,ioos:station:DISL:CATA:1,2019-10-02T10:40:00Z,30.3085,-88.1395,0.0,2.05,356.3,-9999.0,'11111222,11111222,99999222' 
DISL,ioos:station:DISL:CATA:1,2019-10-02T11:40:00Z,30.3085,-88.1395,0.0,2.0,8.71,-9999.0,'11111222,11111222,99999222' 
DISL,ioos:station:DISL:CATA:1,2019-10-02T12:40:00Z,30.3085,-88.1395,0.0,2.6,5.622,-9999.0,'11111222,11111222,99999222' 
DISL,ioos:station:DISL:CATA:1,2019-10-02T13:40:00Z,30.3085,-88.1395,0.0,3.55,35.54,-9999.0,'11111222,11111222,99999222' 
DISL,ioos:station:DISL:CATA:1,2019-10-02T14:40:00Z,30.3085,-88.1395,0.0,3.84,40.8,-9999.0,'11111222,11111222,99999222' 
DISL,ioos:station:DISL:CATA:1,2019-10-02T15:40:00Z,30.3085,-88.1395,0.0,3.2,48.5,-9999.0,'11111222,11111222,99999222' 
DISL,ioos:station:DISL:CATA:1,2019-10-02T16:40:00Z,30.3085,-88.1395,0.0,2.98,59.24,-9999.0,'11111222,11111222,99999222' 
DISL,ioos:station:DISL:CATA:1,2019-10-02T17:40:00Z,30.3085,-88.1395,0.0,2.48,101.1,-9999.0,'11111222,11111222,99999222' 
DISL,ioos:station:DISL:CATA:1,2019-10-02T18:40:00Z,30.3085,-88.1395,0.0,3.34,129.8,-9999.0,'11111222,11111222,99999222' 
DISL,ioos:station:DISL:CATA:1,2019-10-02T19:40:00Z,30.3085,-88.1395,0.0,3.96,125.9,-9999.0,'11111222,11111222,99999222' 
DISL,ioos:station:DISL:CATA:1,2019-10-02T20:40:00Z,30.3085,-88.1395,0.0,2.51,150.8,-9999.0,'11111222,11111222,99999222' 
DISL,ioos:station:DISL:CATA:1,2019-10-02T21:40:00Z,30.3085,-88.1395,0.0,3.68,175.6,-9999.0,'11111222,11111222,99999222' 
DISL,ioos:station:DISL:CATA:1,2019-10-02T22:40:00Z,30.3085,-88.1395,0.0,4.62,159.7,-9999.0,'11111222,11111222,99999222' 
DISL,ioos:station:DISL:CATA:1,2019-10-02T23:40:00Z,30.3085,-88.1395,0.0,4.94,157.2,-9999.0,'11111222,11111222,99999222' 
DISL,ioos:station:DISL:CATA:1,2019-10-03T00:40:00Z,30.3085,-88.1395,0.0,5.54,162.6,-9999.0,'11111222,11111222,99999222' 
DISL,ioos:station:DISL:CATA:1,2019-10-03T01:40:00Z,30.3085,-88.1395,0.0,5.58,168.0,-9999.0,'11111222,11111222,99999222' 
DISL,ioos:station:DISL:CATA:1,2019-10-03T02:40:00Z,30.3085,-88.1395,0.0,3.88,172.3,-9999.0,'11111222,11111222,99999222' 
DISL,ioos:station:DISL:CATA:1,2019-10-03T03:40:00Z,30.3085,-88.1395,0.0,3.67,157.1,-9999.0,'11111222,11111222,99999222' 
DISL,ioos:station:DISL:CATA:1,2019-10-03T04:40:00Z,30.3085,-88.1395,0.0,2.11,188.7,-9999.0,'11111222,11111222,99999222' 
DISL,ioos:station:DISL:CATA:1,2019-10-03T05:40:00Z,30.3085,-88.1395,0.0,2.42,172.6,-9999.0,'11111222,11111222,99999222' 
DISL,ioos:station:DISL:CATA:1,2019-10-03T06:40:00Z,30.3085,-88.1395,0.0,2.47,184.6,-9999.0,'11111222,11111222,99999222' 
DISL,ioos:station:DISL:CATA:1,2019-10-03T07:40:00Z,30.3085,-88.1395,0.0,1.42,213.2,-9999.0,'11111222,11111222,99999222' 
DISL,ioos:station:DISL:CATA:1,2019-10-03T08:40:00Z,30.3085,-88.1395,0.0,1.5,310.9,-9999.0,'11111222,11111222,99999222' 
DISL,ioos:station:DISL:CATA:1,2019-10-03T09:40:00Z,30.3085,-88.1395,0.0,2.19,341.8,-9999.0,'11111222,11111222,99999222' 
DISL,ioos:station:DISL:CATA:1,2019-10-03T10:40:00Z,30.3085,-88.1395,0.0,2.28,341.8,-9999.0,'11111222,11111222,99999222' 
DISL,ioos:station:DISL:CATA:1,2019-10-03T11:40:00Z,30.3085,-88.1395,0.0,2.7,339.2,-9999.0,'11111222,11111222,99999222' 
DISL,ioos:station:DISL:CATA:1,2019-10-03T12:40:00Z,30.3085,-88.1395,0.0,3.04,347.7,-9999.0,'11111222,11111222,99999222' 
DISL,ioos:station:DISL:CATA:1,2019-10-03T13:40:00Z,30.3085,-88.1395,0.0,4.15,351.8,-9999.0,'11111222,11111222,99999222' 
DISL,ioos:station:DISL:CATA:1,2019-10-03T14:40:00Z,30.3085,-88.1395,0.0,2.89,27.05,-9999.0,'11111222,11111222,99999222' 
DISL,ioos:station:DISL:CATA:1,2019-10-03T15:40:00Z,30.3085,-88.1395,0.0,2.41,36.03,-9999.0,'11111222,11111222,99999222' 
DISL,ioos:station:DISL:CATA:1,2019-10-03T16:40:00Z,30.3085,-88.1395,0.0,2.79,48.89,-9999.0,'11111222,11111222,99999222' 
DISL,ioos:station:DISL:CATA:1,2019-10-03T17:40:00Z,30.3085,-88.1395,0.0,3.19,58.77,-9999.0,'11111222,11111222,99999222' 
DISL,ioos:station:DISL:CATA:1,2019-10-03T18:40:00Z,30.3085,-88.1395,0.0,2.12,110.8,-9999.0,'11111222,11111222,99999222' 
DISL,ioos:station:DISL:CATA:1,2019-10-03T19:40:00Z,30.3085,-88.1395,0.0,4.33,176.4,-9999.0,'11111222,11111222,99999222' 
DISL,ioos:station:DISL:CATA:1,2019-10-03T20:40:00Z,30.3085,-88.1395,0.0,4.34,188.7,-9999.0,'11111222,11111222,99999222' 
DISL,ioos:station:DISL:CATA:1,2019-10-03T21:40:00Z,30.3085,-88.1395,0.0,3.86,190.4,-9999.0,'11111222,11111222,99999222' 
DISL,ioos:station:DISL:CATA:1,2019-10-03T22:40:00Z,30.3085,-88.1395,0.0,3.82,193.7,-9999.0,'11111222,11111222,99999222' 
DISL,ioos:station:DISL:CATA:1,2019-10-03T23:40:00Z,30.3085,-88.1395,0.0,3.72,198.8,-9999.0,'11111222,11111222,99999222' 
DISL,ioos:station:DISL:CATA:1,2019-10-04T00:40:00Z,30.3085,-88.1395,0.0,3.74,196.0,-9999.0,'11111222,11111222,99999222' 
DISL,ioos:station:DISL:CATA:1,2019-10-04T01:30:00Z,30.3085,-88.1395,0.0,4.21,197.0,-9999.0,'11111222,11111222,99999222' 
DISL,ioos:station:DISL:CATA:1,2019-10-04T02:30:00Z,30.3085,-88.1395,0.0,4.03,187.4,-9999.0,'11111222,11111222,99999222' 
DISL,ioos:station:DISL:CATA:1,2019-10-04T03:30:00Z,30.3085,-88.1395,0.0,3.13,193.2,-9999.0,'11111222,11111222,99999222' 
DISL,ioos:station:DISL:CATA:1,2019-10-04T04:30:00Z,30.3085,-88.1395,0.0,3.69,191.4,-9999.0,'11111222,11111222,99999222' 
DISL,ioos:station:DISL:CATA:1,2019-10-04T05:30:00Z,30.3085,-88.1395,0.0,3.95,191.0,-9999.0,'11111222,11111222,99999222' 
DISL,ioos:station:DISL:CATA:1,2019-10-04T06:30:00Z,30.3085,-88.1395,0.0,3.08,195.0,-9999.0,'11111222,11111222,99999222' 
DISL,ioos:station:DISL:CATA:1,2019-10-04T07:30:00Z,30.3085,-88.1395,0.0,2.1,255.6,-9999.0,'11111222,11111222,99999222' 
DISL,ioos:station:DISL:CATA:1,2019-10-04T08:30:00Z,30.3085,-88.1395,0.0,2.04,270.2,-9999.0,'11111222,11111222,99999222' 
DISL,ioos:station:DISL:CATA:1,2019-10-04T09:30:00Z,30.3085,-88.1395,0.0,0.78,332.0,-9999.0,'11111222,11111222,99999222' 
DISL,ioos:station:DISL:CATA:1,2019-10-04T10:30:00Z,30.3085,-88.1395,0.0,1.39,346.3,-9999.0,'11111222,11111222,99999222' 
DISL,ioos:station:DISL:CATA:1,2019-10-04T11:30:00Z,30.3085,-88.1395,0.0,2.19,336.3,-9999.0,'11111222,11111222,99999222' 
DISL,ioos:station:DISL:CATA:1,2019-10-04T12:30:00Z,30.3085,-88.1395,0.0,1.66,338.8,-9999.0,'11111222,11111222,99999222' 
DISL,ioos:station:DISL:CATA:1,2019-10-04T13:30:00Z,30.3085,-88.1395,0.0,0.96,329.9,-9999.0,'11111222,11111222,99999222' 
DISL,ioos:station:DISL:CATA:1,2019-10-04T14:30:00Z,30.3085,-88.1395,0.0,0.64,77.98,-9999.0,'11111222,11111222,99999222' 
DISL,ioos:station:DISL:CATA:1,2019-10-04T15:30:00Z,30.3085,-88.1395,0.0,1.07,103.2,-9999.0,'11111222,11111222,99999222' 
DISL,ioos:station:DISL:CATA:1,2019-10-04T16:30:00Z,30.3085,-88.1395,0.0,1.99,137.7,-9999.0,'11111222,11111222,99999222' 
DISL,ioos:station:DISL:CATA:1,2019-10-04T18:00:00Z,30.3085,-88.1395,0.0,2.46,177.3,-9999.0,'11111222,11111222,99999222' 
DISL,ioos:station:DISL:CATA:1,2019-10-04T19:00:00Z,30.3085,-88.1395,0.0,3.59,177.6,-9999.0,'11111222,11111222,99999222' 
DISL,ioos:station:DISL:CATA:1,2019-10-04T20:00:00Z,30.3085,-88.1395,0.0,4.69,186.8,-9999.0,'11111222,11111222,99999222' 
DISL,ioos:station:DISL:CATA:1,2019-10-04T21:00:00Z,30.3085,-88.1395,0.0,5.04,193.4,-9999.0,'11111222,11111222,99999222' 
DISL,ioos:station:DISL:CATA:1,2019-10-04T21:30:00Z,30.3085,-88.1395,0.0,4.48,185.7,-9999.0,'11111222,11111222,99999222' 
DISL,ioos:station:DISL:CATA:1,2019-10-04T22:30:00Z,30.3085,-88.1395,0.0,4.72,198.0,-9999.0,'11111222,11111222,99999222' 
DISL,ioos:station:DISL:CATA:1,2019-10-04T23:30:00Z,30.3085,-88.1395,0.0,5.25,204.3,-9999.0,'11111222,11111222,99999222' 
DISL,ioos:station:DISL:CATA:1,2019-10-05T00:30:00Z,30.3085,-88.1395,0.0,4.64,227.2,-9999.0,'11111222,11111222,99999222' 
DISL,ioos:station:DISL:CATA:1,2019-10-05T01:30:00Z,30.3085,-88.1395,0.0,4.42,260.3,-9999.0,'11111222,11111222,99999222' 
DISL,ioos:station:DISL:CATA:1,2019-10-05T02:30:00Z,30.3085,-88.1395,0.0,3.85,284.8,-9999.0,'11111222,11111222,99999222' 
DISL,ioos:station:DISL:CATA:1,2019-10-05T03:30:00Z,30.3085,-88.1395,0.0,5.02,316.5,-9999.0,'11111222,11111222,99999222' 
DISL,ioos:station:DISL:CATA:1,2019-10-05T04:30:00Z,30.3085,-88.1395,0.0,2.76,345.1,-9999.0,'11111222,11111222,99999222' 
DISL,ioos:station:DISL:CATA:1,2019-10-05T05:30:00Z,30.3085,-88.1395,0.0,0.54,351.7,-9999.0,'11111222,11111222,99999222' 
DISL,ioos:station:DISL:CATA:1,2019-10-05T06:30:00Z,30.3085,-88.1395,0.0,3.96,334.9,-9999.0,'11111222,11111222,99999222' 
DISL,ioos:station:DISL:CATA:1,2019-10-05T07:30:00Z,30.3085,-88.1395,0.0,1.97,30.46,-9999.0,'11111222,11111222,99999222' 
DISL,ioos:station:DISL:CATA:1,2019-10-05T08:30:00Z,30.3085,-88.1395,0.0,1.28,350.0,-9999.0,'11111222,11111222,99999222' 
DISL,ioos:station:DISL:CATA:1,2019-10-05T09:30:00Z,30.3085,-88.1395,0.0,1.6,72.52,-9999.0,'11111222,11111222,99999222' 
DISL,ioos:station:DISL:CATA:1,2019-10-05T10:30:00Z,30.3085,-88.1395,0.0,2.51,54.46,-9999.0,'11111222,11111222,99999222' 
DISL,ioos:station:DISL:CATA:1,2019-10-05T11:30:00Z,30.3085,-88.1395,0.0,2.7,354.5,-9999.0,'11111222,11111222,99999222' 
DISL,ioos:station:DISL:CATA:1,2019-10-05T12:30:00Z,30.3085,-88.1395,0.0,2.63,38.04,-9999.0,'11111222,11111222,99999222' 
DISL,ioos:station:DISL:CATA:1,2019-10-05T13:30:00Z,30.3085,-88.1395,0.0,3.07,59.24,-9999.0,'11111222,11111222,99999222' 
DISL,ioos:station:DISL:CATA:1,2019-10-05T14:30:00Z,30.3085,-88.1395,0.0,3.3,64.28,-9999.0,'11111222,11111222,99999222' 
DISL,ioos:station:DISL:CATA:1,2019-10-05T15:30:00Z,30.3085,-88.1395,0.0,2.59,69.81,-9999.0,'11111222,11111222,99999222' 
DISL,ioos:station:DISL:CATA:1,2019-10-05T16:30:00Z,30.3085,-88.1395,0.0,2.86,104.9,-9999.0,'11111222,11111222,99999222' 
DISL,ioos:station:DISL:CATA:1,2019-10-05T17:30:00Z,30.3085,-88.1395,0.0,4.46,127.3,-9999.0,'11111222,11111222,99999222' 
DISL,ioos:station:DISL:CATA:1,2019-10-05T18:30:00Z,30.3085,-88.1395,0.0,5.41,146.6,-9999.0,'11111222,11111222,99999222' 
DISL,ioos:station:DISL:CATA:1,2019-10-05T19:30:00Z,30.3085,-88.1395,0.0,5.02,148.7,-9999.0,'11111222,11111222,99999222' 
DISL,ioos:station:DISL:CATA:1,2019-10-05T20:30:00Z,30.3085,-88.1395,0.0,4.26,136.7,-9999.0,'11111222,11111222,99999222' 
DISL,ioos:station:DISL:CATA:1,2019-10-05T21:30:00Z,30.3085,-88.1395,0.0,3.9,135.4,-9999.0,'11111222,11111222,99999222' 
DISL,ioos:station:DISL:CATA:1,2019-10-05T22:30:00Z,30.3085,-88.1395,0.0,4.41,126.0,-9999.0,'11111222,11111222,99999222' 
DISL,ioos:station:DISL:CATA:1,2019-10-05T23:30:00Z,30.3085,-88.1395,0.0,4.4,143.2,-9999.0,'11111222,11111222,99999222' 
DISL,ioos:station:DISL:CATA:1,2019-10-06T00:30:00Z,30.3085,-88.1395,0.0,2.57,126.1,-9999.0,'11111222,11111222,99999222' 
DISL,ioos:station:DISL:CATA:1,2019-10-06T01:30:00Z,30.3085,-88.1395,0.0,2.79,116.8,-9999.0,'11111222,11111222,99999222' 
DISL,ioos:station:DISL:CATA:1,2019-10-06T02:30:00Z,30.3085,-88.1395,0.0,2.75,95.5,-9999.0,'11111222,11111222,99999222' 
DISL,ioos:station:DISL:CATA:1,2019-10-06T03:30:00Z,30.3085,-88.1395,0.0,2.85,91.9,-9999.0,'11111222,11111222,99999222' 
DISL,ioos:station:DISL:CATA:1,2019-10-06T04:30:00Z,30.3085,-88.1395,0.0,3.42,60.12,-9999.0,'11111222,11111222,99999222' 
DISL,ioos:station:DISL:CATA:1,2019-10-06T05:30:00Z,30.3085,-88.1395,0.0,2.38,17.99,-9999.0,'11111222,11111222,99999222' 
DISL,ioos:station:DISL:CATA:1,2019-10-06T06:30:00Z,30.3085,-88.1395,0.0,4.41,60.19,-9999.0,'11111222,11111222,99999222' 
DISL,ioos:station:DISL:CATA:1,2019-10-06T07:30:00Z,30.3085,-88.1395,0.0,4.7,72.55,-9999.0,'11111222,11111222,99999222' 
DISL,ioos:station:DISL:CATA:1,2019-10-06T08:30:00Z,30.3085,-88.1395,0.0,5.08,68.53,-9999.0,'11111222,11111222,99999222' 
DISL,ioos:station:DISL:CATA:1,2019-10-06T09:30:00Z,30.3085,-88.1395,0.0,6.43,61.65,-9999.0,'11111222,11111222,99999222' 
DISL,ioos:station:DISL:CATA:1,2019-10-06T10:30:00Z,30.3085,-88.1395,0.0,8.12,60.4,-9999.0,'11111222,11111222,99999222' 
DISL,ioos:station:DISL:CATA:1,2019-10-06T11:30:00Z,30.3085,-88.1395,0.0,6.29,54.55,-9999.0,'11111222,11111222,99999222' 
DISL,ioos:station:DISL:CATA:1,2019-10-06T12:30:00Z,30.3085,-88.1395,0.0,9.0,80.7,-9999.0,'11111222,11111222,99999222' 
DISL,ioos:station:DISL:CATA:1,2019-10-06T13:30:00Z,30.3085,-88.1395,0.0,9.3,89.4,-9999.0,'11111222,11111222,99999222' 
DISL,ioos:station:DISL:CATA:1,2019-10-06T14:30:00Z,30.3085,-88.1395,0.0,6.86,85.9,-9999.0,'11111222,11111222,99999222' 
DISL,ioos:station:DISL:CATA:1,2019-10-06T15:30:00Z,30.3085,-88.1395,0.0,6.22,59.42,-9999.0,'11111222,11111222,99999222' 
DISL,ioos:station:DISL:CATA:1,2019-10-06T16:30:00Z,30.3085,-88.1395,0.0,6.27,72.19,-9999.0,'11111222,11111222,99999222' 
DISL,ioos:station:DISL:CATA:1,2019-10-06T17:30:00Z,30.3085,-88.1395,0.0,6.24,68.34,-9999.0,'11111222,11111222,99999222' 
DISL,ioos:station:DISL:CATA:1,2019-10-06T18:30:00Z,30.3085,-88.1395,0.0,6.56,75.3,-9999.0,'11111222,11111222,99999222' 
DISL,ioos:station:DISL:CATA:1,2019-10-06T19:30:00Z,30.3085,-88.1395,0.0,7.07,79.89,-9999.0,'11111222,11111222,99999222' 
DISL,ioos:station:DISL:CATA:1,2019-10-06T20:30:00Z,30.3085,-88.1395,0.0,5.21,95.0,-9999.0,'11111222,11111222,99999222' 
DISL,ioos:station:DISL:CATA:1,2019-10-06T21:30:00Z,30.3085,-88.1395,0.0,5.4,94.1,-9999.0,'11111222,11111222,99999222' 
DISL,ioos:station:DISL:CATA:1,2019-10-06T22:30:00Z,30.3085,-88.1395,0.0,4.57,85.3,-9999.0,'11111222,11111222,99999222' 
DISL,ioos:station:DISL:CATA:1,2019-10-06T23:30:00Z,30.3085,-88.1395,0.0,5.83,97.0,-9999.0,'11111222,11111222,99999222' 
DISL,ioos:station:DISL:CATA:1,2019-10-07T00:30:00Z,30.3085,-88.1395,0.0,4.64,98.1,-9999.0,'11111222,11111222,99999222' 
DISL,ioos:station:DISL:CATA:1,2019-10-07T01:30:00Z,30.3085,-88.1395,0.0,4.4,101.8,-9999.0,'11111222,11111222,99999222' 
DISL,ioos:station:DISL:CATA:1,2019-10-07T02:30:00Z,30.3085,-88.1395,0.0,5.47,96.1,-9999.0,'11111222,11111222,99999222' 
DISL,ioos:station:DISL:CATA:1,2019-10-07T03:30:00Z,30.3085,-88.1395,0.0,3.83,71.55,-9999.0,'11111222,11111222,99999222' 
DISL,ioos:station:DISL:CATA:1,2019-10-07T04:30:00Z,30.3085,-88.1395,0.0,3.69,48.95,-9999.0,'11111222,11111222,99999222' 
DISL,ioos:station:DISL:CATA:1,2019-10-07T05:30:00Z,30.3085,-88.1395,0.0,3.94,34.5,-9999.0,'11111222,11111222,99999222' 
DISL,ioos:station:DISL:CATA:1,2019-10-07T06:30:00Z,30.3085,-88.1395,0.0,2.63,5.793,-9999.0,'11111222,11111222,99999222' 
DISL,ioos:station:DISL:CATA:1,2019-10-07T07:30:00Z,30.3085,-88.1395,0.0,3.81,9.71,-9999.0,'11111222,11111222,99999222' 
DISL,ioos:station:DISL:CATA:1,2019-10-07T08:30:00Z,30.3085,-88.1395,0.0,4.32,112.8,-9999.0,'11111222,11111222,99999222' 
DISL,ioos:station:DISL:CATA:1,2019-10-07T09:30:00Z,30.3085,-88.1395,0.0,2.06,336.7,-9999.0,'11111222,11111222,99999222' 
DISL,ioos:station:DISL:CATA:1,2019-10-07T10:30:00Z,30.3085,-88.1395,0.0,3.64,34.07,-9999.0,'11111222,11111222,99999222' 
DISL,ioos:station:DISL:CATA:1,2019-10-07T11:30:00Z,30.3085,-88.1395,0.0,5.15,54.36,-9999.0,'11111222,11111222,99999222' 
DISL,ioos:station:DISL:CATA:1,2019-10-07T12:30:00Z,30.3085,-88.1395,0.0,5.15,39.91,-9999.0,'11111222,11111222,99999222' 
DISL,ioos:station:DISL:CATA:1,2019-10-07T18:00:00Z,30.3085,-88.1395,0.0,3.73,56.69,-9999.0,'11111222,11111222,99999222' 
DISL,ioos:station:DISL:CATA:1,2019-10-07T19:30:00Z,30.3085,-88.1395,0.0,4.41,36.71,-9999.0,'11111222,11111222,99999222' 
DISL,ioos:station:DISL:CATA:1,2019-10-07T20:30:00Z,30.3085,-88.1395,0.0,5.07,18.14,-9999.0,'11111222,11111222,99999222' 
DISL,ioos:station:DISL:CATA:1,2019-10-07T21:30:00Z,30.3085,-88.1395,0.0,7.16,1.834,-9999.0,'11111222,11111222,99999222' 
DISL,ioos:station:DISL:CATA:1,2019-10-07T22:30:00Z,30.3085,-88.1395,0.0,5.5,359.4,-9999.0,'11111222,11144222,99999222' 
DISL,ioos:station:DISL:CATA:1,2019-10-07T23:30:00Z,30.3085,-88.1395,0.0,4.53,22.37,-9999.0,'11111222,11111222,99999222' 
DISL,ioos:station:DISL:CATA:1,2019-10-08T00:30:00Z,30.3085,-88.1395,0.0,5.86,25.69,-9999.0,'11111222,11111222,99999222' 
DISL,ioos:station:DISL:CATA:1,2019-10-08T01:30:00Z,30.3085,-88.1395,0.0,4.58,27.6,-9999.0,'11111222,11111222,99999222' 
DISL,ioos:station:DISL:CATA:1,2019-10-08T02:30:00Z,30.3085,-88.1395,0.0,3.91,339.6,-9999.0,'11111222,11111222,99999222' 
DISL,ioos:station:DISL:CATA:1,2019-10-08T03:30:00Z,30.3085,-88.1395,0.0,5.88,355.3,-9999.0,'11111222,11111222,99999222' 
DISL,ioos:station:DISL:CATA:1,2019-10-08T04:30:00Z,30.3085,-88.1395,0.0,6.7,3.657,-9999.0,'11111222,11111222,99999222' 
DISL,ioos:station:DISL:CATA:1,2019-10-08T05:30:00Z,30.3085,-88.1395,0.0,5.27,358.7,-9999.0,'11111222,11111222,99999222' 
DISL,ioos:station:DISL:CATA:1,2019-10-08T06:30:00Z,30.3085,-88.1395,0.0,5.45,356.6,-9999.0,'11111222,11111222,99999222' 
DISL,ioos:station:DISL:CATA:1,2019-10-08T07:30:00Z,30.3085,-88.1395,0.0,5.41,3.314,-9999.0,'11111222,11111222,99999222' 
DISL,ioos:station:DISL:CATA:1,2019-10-08T08:30:00Z,30.3085,-88.1395,0.0,7.26,10.96,-9999.0,'11111222,11111222,99999222' 
DISL,ioos:station:DISL:CATA:1,2019-10-08T09:30:00Z,30.3085,-88.1395,0.0,8.84,18.06,-9999.0,'11111222,11111222,99999222' 
DISL,ioos:station:DISL:CATA:1,2019-10-08T10:30:00Z,30.3085,-88.1395,0.0,8.2,19.31,-9999.0,'11111222,11111222,99999222' 
DISL,ioos:station:DISL:CATA:1,2019-10-08T11:30:00Z,30.3085,-88.1395,0.0,5.23,351.4,-9999.0,'11111222,11111222,99999222' 
DISL,ioos:station:DISL:CATA:1,2019-10-08T12:30:00Z,30.3085,-88.1395,0.0,5.23,358.1,-9999.0,'11111222,11111222,99999222' 
DISL,ioos:station:DISL:CATA:1,2019-10-08T13:30:00Z,30.3085,-88.1395,0.0,6.43,2.131,-9999.0,'11111222,11111222,99999222' 
DISL,ioos:station:DISL:CATA:1,2019-10-08T14:30:00Z,30.3085,-88.1395,0.0,8.3,10.73,-9999.0,'11111222,11111222,99999222' 
DISL,ioos:station:DISL:CATA:1,2019-10-08T15:30:00Z,30.3085,-88.1395,0.0,7.99,13.78,-9999.0,'11111222,11111222,99999222' 
DISL,ioos:station:DISL:CATA:1,2019-10-08T16:30:00Z,30.3085,-88.1395,0.0,7.01,21.03,-9999.0,'11111222,11111222,99999222' 
DISL,ioos:station:DISL:CATA:1,2019-10-08T17:30:00Z,30.3085,-88.1395,0.0,5.41,24.01,-9999.0,'11111222,11111222,99999222' 
DISL,ioos:station:DISL:CATA:1,2019-10-08T19:00:00Z,30.3085,-88.1395,0.0,2.23,35.82,-9999.0,'11111222,11111222,99999222' 
DISL,ioos:station:DISL:CATA:1,2019-10-08T20:00:00Z,30.3085,-88.1395,0.0,1.62,145.3,-9999.0,'11111222,11111222,99999222' 
DISL,ioos:station:DISL:CATA:1,2019-10-08T21:00:00Z,30.3085,-88.1395,0.0,2.1,234.5,-9999.0,'11111222,11111222,99999222' 
DISL,ioos:station:DISL:CATA:1,2019-10-08T21:30:00Z,30.3085,-88.1395,0.0,2.05,230.1,-9999.0,'11111222,11111222,99999222' 
DISL,ioos:station:DISL:CATA:1,2019-10-08T22:30:00Z,30.3085,-88.1395,0.0,1.81,243.0,-9999.0,'11111222,11111222,99999222' 
DISL,ioos:station:DISL:CATA:1,2019-10-08T23:30:00Z,30.3085,-88.1395,0.0,1.15,229.7,-9999.0,'11111222,11111222,99999222' 
DISL,ioos:station:DISL:CATA:1,2019-10-09T00:30:00Z,30.3085,-88.1395,0.0,1.38,264.8,-9999.0,'11111222,11111222,99999222' 
DISL,ioos:station:DISL:CATA:1,2019-10-09T01:30:00Z,30.3085,-88.1395,0.0,1.46,307.5,-9999.0,'11111222,11111222,99999222' 
DISL,ioos:station:DISL:CATA:1,2019-10-09T03:00:00Z,30.3085,-88.1395,0.0,3.77,352.9,-9999.0,'11111222,11111222,99999222' 
DISL,ioos:station:DISL:CATA:1,2019-10-09T03:30:00Z,30.3085,-88.1395,0.0,3.81,352.8,-9999.0,'11111222,11111222,99999222' 
DISL,ioos:station:DISL:CATA:1,2019-10-09T04:30:00Z,30.3085,-88.1395,0.0,3.99,352.3,-9999.0,'11111222,11111222,99999222' 
DISL,ioos:station:DISL:CATA:1,2019-10-09T05:30:00Z,30.3085,-88.1395,0.0,4.31,357.5,-9999.0,'11111222,11111222,99999222' 
DISL,ioos:station:DISL:CATA:1,2019-10-09T06:30:00Z,30.3085,-88.1395,0.0,4.15,357.4,-9999.0,'11111222,11111222,99999222' 
DISL,ioos:station:DISL:CATA:1,2019-10-09T07:30:00Z,30.3085,-88.1395,0.0,5.9,12.57,-9999.0,'11111222,11111222,99999222' 
DISL,ioos:station:DISL:CATA:1,2019-10-09T08:30:00Z,30.3085,-88.1395,0.0,4.58,349.5,-9999.0,'11111222,11111222,99999222' 
DISL,ioos:station:DISL:CATA:1,2019-10-09T09:30:00Z,30.3085,-88.1395,0.0,4.72,356.5,-9999.0,'11111222,11111222,99999222' 